Regional Weather Roundup
Issued by NWS Albany, NY

Home | Current Version | Previous Version | Text Only | Print | Product List | Glossary On
Versions: 1 2 3 4 5 6 7 8 9 10 11 12 13 14 15 16 17 18 19 20 21 22 23 24 25 26 27 28 29 30 31 32 33 34 35 36 37 38 39 40 41 42 43 44 45 46 47 48 49 50
000
ASUS41 KALY 281010
RWRALY

NEW YORK STATE HOURLY WEATHER ROUNDUP
NATIONAL WEATHER SERVICE ALBANY NY
600 AM EDT TUE APR 28 2015

NOTE: "FAIR" INDICATES FEW OR NO CLOUDS BELOW 12,000 FEET WITH NO
SIGNIFICANT WEATHER AND/OR NO OBSTRUCTIONS TO VISIBILITY.

NYZ032-033-038>043-046>054-057>066-NYZ062>081-281100-
EAST


CITY           SKY/WX    TMP DP  RH WIND       PRES   REMARKS
ALBANY         PTCLDY    45  35  68 N8        29.81R
GLENS FALLS    MOCLDY    46  34  62 N9        29.82R
POUGHKEEPSIE   CLEAR     48  37  65 N5        29.77R
NEWBURGH       PTCLDY    48  37  66 NE12G21   29.78R
MONTGOMERY     CLOUDY    46  37  71 NE5       29.77R
WHITE PLAINS   PTCLDY    47  37  68 N15       29.74R
ISLIP          PTCLDY    46  39  76 N12       29.72R
NEW YORK CITY  PTCLDY    51  37  58 N14       29.75R
CENTRAL PARK   CLEAR     51  36  56 MISG      29.78R
$$

NYZ005>009-017-018-044>046-055-056-281100-
CENTRAL


CITY           SKY/WX    TMP DP  RH WIND       PRES   REMARKS
FULTON         CLOUDY    41  37  86 NW6       29.91R
SYRACUSE       PTCLDY    41  37  86 W7        29.90R
ROME           PTCLDY    38  36  92 CALM      29.89R
ELMIRA         PTCLDY    42  39  89 W3        29.91R
BINGHAMTON     PTCLDY    40  37  89 NW10      29.85R WCI  33
MONTICELLO     CLEAR     43  37  81 NW9       29.80R
$$

NYZ026>034-041>043-281100-
NORTH


CITY           SKY/WX    TMP DP  RH WIND       PRES   REMARKS
WATERTOWN      PTCLDY    37  37 100 CALM      29.90R
FORT DRUM      NOT AVBL
MASSENA        CLOUDY    45  39  79 NE3       29.91R
SARANAC LAKE   CLEAR     39  33  79 NE13      29.84R WCI  31
PLATTSBURGH    CLOUDY    43  37  79 NW8       29.87R
$$

NYZ001>004-010>016-019>021-281100-
WEST


CITY           SKY/WX    TMP DP  RH WIND       PRES   REMARKS
NIAGARA FALLS  MOCLDY    40  35  83 NW10      29.99R WCI  33
BUFFALO        MOCLDY    39  34  82 SW6       29.99R WCI  35
DUNKIRK        CLEAR     35  33  92 SW6       30.02S WCI  30
JAMESTOWN      CLEAR     36  30  80 NW5       29.99S WCI  32
WELLSVILLE     CLOUDY    37  34  89 W9        29.94F WCI  30
ROCHESTER      MOCLDY    42  38  85 W6        29.96R
PENN YAN       CLEAR     43  36  76 W6        29.92R
$$

             KEY
       WCI = WIND CHILL INDEX
       VSB = VISIBILITY
       HX  = HEAT INDEX
$$


USA.gov is the U.S. government's official web portal to all federal, state and local government web resources and services.